EW8215 Weather Reports


Display with metric or nautical units.
time (UTC)temp
F
wind
direction
speed
MPH
gust
MPH
rain 1hr
in
rain 24hr
in
rain mn
in
humidity
%
barometer
mb
20220120050004 44 30 13.0 23.0 0.00 0.00 0.00 69 1023.4
20220120045504 44 5 10.0 23.0 0.00 0.00 0.00 70 1023.4
20220120045004 44 342 9.0 28.0 0.00 0.00 0.00 71 1023.4
20220120044504 44 341 13.0 21.0 0.00 0.00 0.00 71 1023.0
20220120044004 44 355 13.0 21.0 0.00 0.00 0.00 71 1023.0
20220120043503 44 343 9.0 17.0 0.00 0.00 0.00 72 1023.0
20220120043004 44 313 12.0 23.0 0.00 0.00 0.00 71 1022.7
20220120042504 45 318 11.0 23.0 0.00 0.00 0.00 70 1022.5
20220120042004 45 337 11.0 21.0 0.00 0.00 0.00 70 1022.7
20220120041504 45 324 12.0 25.0 0.00 0.00 0.00 69 1022.4
20220120041004 46 340 13.0 25.0 0.00 0.00 0.00 69 1022.1
20220120040504 47 304 16.0 28.0 0.00 0.00 0.00 68 1022.0
20220120040004 47 329 15.0 25.0 0.00 0.00 0.00 67 1021.8
20220120035504 48 348 12.0 28.0 0.00 0.00 0.00 67 1021.7
20220120035004 48 326 17.0 28.0 0.00 0.00 0.00 67 1021.3
20220120034504 49 18 13.0 30.0 0.00 0.00 0.00 68 1021.1
20220120034004 49 20 13.0 28.0 0.00 0.00 0.00 68 1020.9
20220120033504 50 318 12.0 17.0 0.00 0.00 0.00 69 1020.8
20220120033004 50 332 14.0 21.0 0.00 0.00 0.00 68 1020.7
20220120032504 50 0 12.0 17.0 0.00 0.00 0.00 68 1020.7
20220120032004 50 326 14.0 36.0 0.00 0.00 0.00 68 1020.3
20220120031504 51 21 12.0 17.0 0.00 0.00 0.00 69 1020.3
20220120031003 52 339 6.0 23.0 0.00 0.00 0.00 68 1020.3
20220120030504 52 348 8.0 17.0 0.00 0.00 0.00 69 1020.0
20220120030004 53 52 10.0 21.0 0.00 0.00 0.00 68 1020.0
20220120025504 54 0 12.0 23.0 0.00 0.00 0.00 68 1020.0
20220120025004 55 346 6.0 28.0 0.00 0.00 0.00 67 1019.7
20220120024504 55 6 9.0 23.0 0.00 0.00 0.00 67 1019.6
20220120024004 56 359 10.0 21.0 0.00 0.00 0.00 66 1019.6
20220120023504 56 356 10.0 21.0 0.00 0.00 0.00 66 1019.3
20220120023004 56 319 6.0 10.0 0.00 0.00 0.00 66 1019.0
20220120022504 57 356 6.0 17.0 0.00 0.00 0.00 65 1019.0
20220120022004 57 340 13.0 23.0 0.00 0.00 0.00 64 1018.8
20220120021505 57 24 5.0 23.0 0.00 0.00 0.00 66 1018.6
20220120021004 57 353 3.0 10.0 0.00 0.00 0.00 64 1018.3
20220120020504 58 357 7.0 17.0 0.00 0.00 0.00 63 1018.3
20220120020004 58 23 9.0 17.0 0.00 0.00 0.00 62 1017.9
20220120015505 58 9 6.0 17.0 0.00 0.00 0.00 62 1017.9
20220120015004 58 353 9.0 15.0 0.00 0.00 0.00 61 1017.9
20220120014504 59 0 6.0 15.0 0.00 0.00 0.00 61 1017.9
20220120014004 59 11 5.0 17.0 0.00 0.00 0.00 61 1017.6
20220120013504 59 81 6.0 17.0 0.00 0.00 0.00 61 1017.4
20220120013004 59 346 7.0 21.0 0.00 0.00 0.00 60 1017.3
20220120012504 60 10 4.0 15.0 0.00 0.00 0.00 60 1016.9
20220120012004 60 9 5.0 17.0 0.00 0.00 0.00 60 1016.9
20220120011504 60 16 6.0 21.0 0.00 0.00 0.00 60 1016.9
20220120011005 60 14 5.0 15.0 0.00 0.00 0.00 59 1016.6
20220120010504 61 31 7.0 17.0 0.00 0.00 0.00 59 1016.6
20220120010004 61 46 7.0 21.0 0.00 0.00 0.00 59 1016.3
20220120005504 61 356 9.0 17.0 0.00 0.00 0.00 58 1016.3
20220120005004 61 342 10.0 23.0 0.00 0.00 0.00 58 1016.0
20220120004505 62 344 9.0 17.0 0.00 0.00 0.00 58 1015.9
20220120004004 62 355 5.0 13.0 0.00 0.00 0.00 57 1015.6
20220120003504 62 15 7.0 15.0 0.00 0.00 0.00 56 1015.6
20220120003006 63 342 9.0 17.0 0.00 0.00 0.00 56 1015.2
20220120002513 63 8 7.0 15.0 0.00 0.00 0.00 56 1015.2
20220120002009 64 6 10.0 21.0 0.00 0.00 0.00 55 1014.9
20220120001505 64 333 10.0 17.0 0.00 0.00 0.00 54 1014.9
20220120001005 65 12 5.0 15.0 0.00 0.00 0.00 53 1014.7
20220120000506 65 72 8.0 15.0 0.00 0.00 0.00 52 1014.6
20220120000008 66 331 10.0 25.0 0.00 0.00 0.00 51 1014.6
20220119235507 67 338 11.0 25.0 0.00 0.00 0.00 50 1014.4
20220119235006 68 25 9.0 21.0 0.00 0.00 0.00 50 1014.2
20220119234504 69 44 9.0 17.0 0.00 0.00 0.00 49 1013.9
20220119234005 70 21 9.0 17.0 0.00 0.00 0.00 49 1013.5
20220119233508 71 10 6.0 21.0 0.00 0.00 0.00 49 1013.5
20220119233003 72 29 11.0 21.0 0.00 0.00 0.00 48 1013.5
20220119232504 73 293 10.0 21.0 0.00 0.00 0.00 47 1013.2
20220119232005 74 57 3.0 21.0 0.00 0.00 0.00 65 1013.0
20220119231504 74 65 2.0 2.0 0.00 0.00 0.00 64 1012.5
20220119231004 74 66 2.0 2.0 0.00 0.00 0.00 64 1012.3
20220119230504 75 75 2.0 5.0 0.00 0.00 0.00 63 1012.4
20220119230004 75 70 2.0 5.0 0.00 0.00 0.00 63 1012.2
20220119225504 75 84 1.0 2.0 0.00 0.00 0.00 62 1012.2
20220119225005 76 97 1.0 2.0 0.00 0.00 0.00 61 1012.2
20220119224504 76 86 2.0 5.0 0.00 0.00 0.00 60 1012.2
20220119224005 76 81 2.0 5.0 0.00 0.00 0.00 60 1012.2
20220119223506 76 98 1.0 8.0 0.00 0.00 0.00 60 1012.2
20220119223004 77 83 2.0 5.0 0.00 0.00 0.00 58 1012.2
20220119222505 78 59 3.0 8.0 0.00 0.00 0.00 58 1012.2
20220119222005 78 74 4.0 8.0 0.00 0.00 0.00 58 1012.2
20220119221504 78 78 1.0 5.0 0.00 0.00 0.00 57 1012.2
20220119221004 79 57 0.0 0.0 0.00 0.00 0.00 56 1012.2
20220119220508 79 117 0.0 2.0 0.00 0.00 0.00 54 1012.2
20220119220007 79 98 1.0 5.0 0.00 0.00 0.00 54 1012.2
20220119215504 79 122 1.0 5.0 0.00 0.00 0.00 51 1012.2
20220119215005 78 192 1.0 2.0 0.00 0.00 0.00 51 1012.2
20220119214504 78 146 0.0 2.0 0.00 0.00 0.00 54 1012.0
20220119214004 78 105 0.0 0.0 0.00 0.00 0.00 54 1012.2
20220119213507 78 107 0.0 0.0 0.00 0.00 0.00 54 1012.2
20220119213006 78 177 1.0 5.0 0.00 0.00 0.00 54 1012.2
20220119212506 78 218 1.0 2.0 0.00 0.00 0.00 53 1012.2
20220119212006 78 143 1.0 5.0 0.00 0.00 0.00 56 1012.1
20220119211506 78 306 3.0 8.0 0.00 0.00 0.00 55 1012.2
20220119211006 78 217 2.0 5.0 0.00 0.00 0.00 55 1012.0
20220119210506 77 199 1.0 5.0 0.00 0.00 0.00 54 1012.0
20220119210006 77 189 2.0 5.0 0.00 0.00 0.00 57 1011.9
20220119205505 77 197 3.0 8.0 0.00 0.00 0.00 57 1011.9
20220119205005 77 239 3.0 8.0 0.00 0.00 0.00 58 1011.9
20220119204508 77 222 2.0 5.0 0.00 0.00 0.00 59 1011.9
20220119204007 77 252 2.0 8.0 0.00 0.00 0.00 58 1011.9
20220119203504 77 215 3.0 8.0 0.00 0.00 0.00 57 1011.9
20220119203005 76 285 4.0 8.0 0.00 0.00 0.00 56 1011.9
20220119202505 76 242 6.0 10.0 0.00 0.00 0.00 56 1012.1
20220119202005 76 242 5.0 8.0 0.00 0.00 0.00 57 1012.2
20220119201505 76 235 6.0 10.0 0.00 0.00 0.00 57 1012.2
20220119201004 75 288 6.0 10.0 0.00 0.00 0.00 56 1012.2
20220119200503 75 263 3.0 8.0 0.00 0.00 0.00 56 1012.2
20220119200006 74 236 5.0 10.0 0.00 0.00 0.00 56 1012.2
20220119195508 74 251 4.0 10.0 0.00 0.00 0.00 62 1012.2
20220119195011 74 231 6.0 10.0 0.00 0.00 0.00 63 1012.4
20220119194507 74 234 5.0 10.0 0.00 0.00 0.00 67 1012.5
20220119194004 74 200 5.0 10.0 0.00 0.00 0.00 69 1012.5
20220119193504 74 226 6.0 10.0 0.00 0.00 0.00 68 1012.5
20220119193004 74 255 3.0 10.0 0.00 0.00 0.00 68 1012.5
20220119192504 74 206 6.0 10.0 0.00 0.00 0.00 69 1012.9
20220119192005 73 188 6.0 10.0 0.00 0.00 0.00 71 1012.9
20220119191504 73 206 5.0 10.0 0.00 0.00 0.00 71 1012.9
20220119191004 73 197 4.0 8.0 0.00 0.00 0.00 70 1012.9
20220119190504 73 194 1.0 8.0 0.00 0.00 0.00 71 1012.9
20220119190004 73 255 4.0 8.0 0.00 0.00 0.00 71 1013.2
20220119185506 74 218 5.0 10.0 0.00 0.00 0.00 72 1013.2
20220119185006 74 234 5.0 8.0 0.00 0.00 0.00 70 1013.2
20220119184504 74 187 3.0 8.0 0.00 0.00 0.00 71 1013.5
20220119184004 74 238 7.0 13.0 0.00 0.00 0.00 70 1013.5
20220119183504 74 238 5.0 8.0 0.00 0.00 0.00 69 1013.5
20220119183004 74 235 4.0 13.0 0.00 0.00 0.00 70 1013.5
20220119182506 74 260 5.0 10.0 0.00 0.00 0.00 67 1013.9
20220119182004 74 237 3.0 8.0 0.00 0.00 0.00 70 1013.9
20220119181504 74 231 5.0 10.0 0.00 0.00 0.00 70 1013.9
20220119181004 74 214 4.0 10.0 0.00 0.00 0.00 70 1013.9
20220119180504 74 188 5.0 8.0 0.00 0.00 0.00 71 1014.2
20220119180004 74 232 6.0 10.0 0.00 0.00 0.00 69 1014.2
20220119175504 74 201 5.0 13.0 0.00 0.00 0.00 71 1014.2
20220119175004 73 262 3.0 8.0 0.00 0.00 0.00 71 1014.2
20220119174505 73 221 5.0 8.0 0.00 0.00 0.00 71 1014.2
20220119174008 73 172 3.0 10.0 0.00 0.00 0.00 73 1014.2
20220119173504 73 228 4.0 13.0 0.00 0.00 0.00 74 1014.6
20220119173008 73 208 9.0 15.0 0.00 0.00 0.00 74 1014.4
20220119172507 73 202 6.0 10.0 0.00 0.00 0.00 76 1014.6
20220119172007 72 237 6.0 13.0 0.00 0.00 0.00 75 1014.6
20220119171506 72 237 7.0 13.0 0.00 0.00 0.00 74 1014.4
20220119171006 71 249 7.0 15.0 0.00 0.00 0.00 75 1014.3
20220119170504 70 177 5.0 13.0 0.00 0.00 0.00 76 1014.6
20220119170004 69 243 5.0 8.0 0.00 0.00 0.00 78 1014.6
20220119165507 68 196 6.0 10.0 0.00 0.00 0.00 80 1014.6
20220119165009 68 192 7.0 10.0 0.00 0.00 0.00 83 1014.7
20220119164506 68 214 6.0 10.0 0.00 0.00 0.00 86 1014.9
20220119164006 68 201 4.0 10.0 0.00 0.00 0.00 87 1014.9
20220119163504 68 228 6.0 10.0 0.00 0.00 0.00 87 1015.2
20220119163004 68 223 6.0 10.0 0.00 0.00 0.00 87 1015.2
20220119162504 68 227 6.0 13.0 0.00 0.00 0.00 87 1015.2
20220119162006 68 197 6.0 10.0 0.00 0.00 0.00 86 1015.2
20220119161508 67 226 5.0 15.0 0.00 0.00 0.00 87 1015.0
20220119161005 67 214 6.0 10.0 0.00 0.00 0.00 87 1015.2
20220119160504 67 237 7.0 10.0 0.00 0.00 0.00 86 1015.0
20220119160008 67 214 3.0 8.0 0.00 0.00 0.00 87 1014.9
20220119155508 67 206 5.0 10.0 0.00 0.00 0.00 88 1015.2
20220119155004 66 218 3.0 10.0 0.00 0.00 0.00 88 1014.9
20220119154508 66 246 3.0 10.0 0.00 0.00 0.00 89 1014.9
20220119154008 66 248 2.0 13.0 0.00 0.00 0.00 89 1014.7
20220119153507 66 229 3.0 8.0 0.00 0.00 0.00 90 1014.7
20220119153004 66 200 6.0 10.0 0.00 0.00 0.00 90 1014.8
20220119152504 65 251 3.0 8.0 0.00 0.00 0.00 90 1014.8
20220119152004 65 235 3.0 8.0 0.00 0.00 0.00 91 1014.6
20220119151504 65 209 1.0 8.0 0.00 0.00 0.00 91 1014.6
20220119151004 65 197 3.0 8.0 0.00 0.00 0.00 91 1014.6
20220119150504 65 185 5.0 8.0 0.00 0.00 0.00 92 1014.6
20220119150004 65 212 1.0 10.0 0.00 0.00 0.00 92 1014.2
20220119145507 65 248 4.0 10.0 0.00 0.00 0.00 92 1014.2
20220119145006 65 186 2.0 10.0 0.00 0.00 0.00 92 1014.2
20220119144506 64 242 3.0 10.0 0.00 0.00 0.00 92 1014.2
20220119144006 64 233 1.0 5.0 0.00 0.00 0.00 92 1014.2
20220119143505 64 188 2.0 5.0 0.00 0.00 0.00 93 1014.2
20220119143005 64 238 3.0 5.0 0.00 0.00 0.00 93 1014.2
20220119142506 64 206 2.0 5.0 0.00 0.00 0.00 93 1014.0
20220119142009 64 220 2.0 5.0 0.00 0.00 0.00 93 1013.9
20220119141503 64 190 2.0 8.0 0.00 0.00 0.00 93 1013.9
20220119141004 64 202 2.0 8.0 0.00 0.00 0.00 93 1013.9
20220119140505 64 249 1.0 5.0 0.00 0.00 0.00 93 1013.9
20220119140005 64 234 2.0 10.0 0.00 0.00 0.00 93 1013.9
20220119135504 64 208 2.0 8.0 0.00 0.00 0.00 93 1013.7
20220119135004 64 174 2.0 8.0 0.00 0.00 0.00 93 1013.5
20220119134503 64 235 2.0 5.0 0.00 0.00 0.00 93 1013.5
20220119134008 64 166 2.0 5.0 0.00 0.00 0.00 93 1013.5
20220119133508 64 211 3.0 8.0 0.00 0.00 0.00 93 1013.5
20220119133003 64 165 2.0 8.0 0.00 0.00 0.00 93 1013.5
20220119132505 64 219 2.0 8.0 0.00 0.00 0.00 93 1013.5
20220119132003 64 207 3.0 10.0 0.00 0.00 0.00 93 1013.5
20220119131504 64 194 4.0 13.0 0.00 0.00 0.00 93 1013.2
20220119131004 64 179 2.0 8.0 0.00 0.00 0.00 93 1013.2
20220119130504 64 203 2.0 8.0 0.00 0.00 0.00 93 1013.2
20220119130007 64 219 1.0 5.0 0.00 0.00 0.00 93 1012.9
20220119125507 64 173 5.0 8.0 0.00 0.00 0.00 93 1012.9
20220119125004 64 178 6.0 10.0 0.00 0.00 0.00 93 1012.9
20220119124507 64 167 3.0 10.0 0.00 0.00 0.00 93 1012.9
20220119124006 64 188 1.0 8.0 0.00 0.00 0.00 93 1012.9
20220119123508 64 163 2.0 8.0 0.00 0.00 0.00 93 1012.9
20220119123006 64 229 3.0 8.0 0.00 0.00 0.00 93 1012.9
20220119122505 64 222 5.0 15.0 0.00 0.00 0.00 93 1012.9
20220119122004 64 201 5.0 13.0 0.00 0.00 0.00 93 1012.9
20220119121504 64 213 3.0 10.0 0.00 0.00 0.00 93 1012.5
20220119121004 64 235 8.0 13.0 0.00 0.00 0.00 93 1012.7
20220119120504 64 184 2.0 10.0 0.00 0.00 0.00 93 1012.9
20220119120004 64 233 6.0 10.0 0.00 0.00 0.00 93 1012.9
20220119115504 64 189 5.0 13.0 0.00 0.00 0.00 93 1012.6
20220119115004 64 151 2.0 8.0 0.00 0.00 0.00 93 1012.7
20220119114505 64 174 5.0 13.0 0.00 0.00 0.00 92 1012.7
20220119114004 64 202 4.0 13.0 0.00 0.00 0.00 93 1012.9
20220119113504 64 202 5.0 13.0 0.00 0.00 0.00 93 1012.5
20220119113005 64 217 6.0 13.0 0.00 0.00 0.00 93 1012.5
20220119112505 64 239 3.0 8.0 0.00 0.00 0.00 93 1012.7
20220119112005 64 185 3.0 8.0 0.00 0.00 0.00 93 1012.7
20220119111508 64 210 2.0 10.0 0.00 0.00 0.00 93 1012.6
20220119111007 64 196 3.0 10.0 0.00 0.00 0.00 93 1012.7
20220119110507 64 198 1.0 8.0 0.00 0.00 0.00 93 1012.5
20220119110004 63 190 3.0 13.0 0.00 0.00 0.00 93 1012.5
20220119105504 63 232 2.0 8.0 0.00 0.00 0.00 93 1012.4
20220119105004 63 147 0.0 8.0 0.00 0.00 0.00 93 1012.2
20220119104507 63 191 2.0 8.0 0.00 0.00 0.00 93 1012.2
20220119104007 63 192 1.0 5.0 0.00 0.00 0.00 93 1012.2
20220119103507 63 195 3.0 8.0 0.00 0.00 0.00 93 1012.2
20220119103006 63 226 2.0 5.0 0.00 0.00 0.00 93 1012.3
20220119102506 63 158 3.0 5.0 0.00 0.00 0.00 93 1012.2
20220119102005 63 194 2.0 5.0 0.00 0.00 0.00 93 1012.2
20220119101506 63 206 2.0 8.0 0.00 0.00 0.00 93 1012.2
20220119101005 63 209 4.0 13.0 0.00 0.00 0.00 93 1012.3
20220119100504 63 202 4.0 8.0 0.00 0.00 0.00 93 1012.2
20220119100006 63 192 3.0 10.0 0.00 0.00 0.00 93 1012.2
20220119095506 63 191 4.0 10.0 0.00 0.00 0.00 93 1012.4
20220119095004 63 195 3.0 15.0 0.00 0.00 0.00 93 1012.5
20220119094504 63 155 2.0 8.0 0.00 0.00 0.00 93 1012.4
20220119094004 62 233 4.0 8.0 0.00 0.00 0.00 93 1012.2
20220119093504 62 220 2.0 13.0 0.00 0.00 0.00 93 1012.2
20220119093008 62 181 3.0 5.0 0.00 0.00 0.00 93 1012.5
20220119092508 62 196 5.0 10.0 0.00 0.00 0.00 93 1012.5
20220119092004 62 213 5.0 10.0 0.00 0.00 0.00 92 1012.5
20220119091504 62 186 3.0 10.0 0.00 0.00 0.00 93 1012.5
20220119091008 62 195 4.0 8.0 0.00 0.00 0.00 93 1012.5
20220119090508 62 198 1.0 8.0 0.00 0.00 0.00 93 1012.7
20220119090007 62 198 2.0 15.0 0.00 0.00 0.00 93 1012.5
20220119085508 61 180 2.0 5.0 0.00 0.00 0.00 93 1012.5
20220119085006 61 205 3.0 8.0 0.00 0.00 0.00 93 1012.7
20220119084506 61 166 3.0 8.0 0.00 0.00 0.00 93 1012.9
20220119084007 61 174 1.0 5.0 0.00 0.00 0.00 93 1012.9
20220119083504 61 197 3.0 5.0 0.00 0.00 0.00 93 1012.9
20220119083004 61 213 2.0 5.0 0.00 0.00 0.00 93 1012.9
20220119082507 61 206 1.0 5.0 0.00 0.00 0.00 93 1012.9
20220119082008 61 236 2.0 5.0 0.00 0.00 0.00 93 1012.9
20220119081506 61 219 2.0 5.0 0.00 0.00 0.00 93 1012.9
20220119081008 61 185 2.0 5.0 0.00 0.00 0.00 93 1013.2
20220119080504 61 189 3.0 8.0 0.00 0.00 0.00 93 1013.2
20220119080005 61 212 2.0 5.0 0.00 0.00 0.00 93 1013.2
20220119075506 60 159 2.0 5.0 0.00 0.00 0.00 93 1013.2
20220119075005 60 206 2.0 8.0 0.00 0.00 0.00 93 1013.2
20220119074505 60 182 2.0 5.0 0.00 0.00 0.00 93 1013.4
20220119074004 60 155 0.0 5.0 0.00 0.00 0.00 92 1013.5
20220119073504 60 171 1.0 5.0 0.00 0.00 0.00 92 1013.5
20220119073004 60 188 3.0 10.0 0.00 0.00 0.00 92 1013.5
20220119072505 60 177 2.0 5.0 0.00 0.00 0.00 92 1013.5
20220119072005 60 207 3.0 8.0 0.00 0.00 0.00 92 1013.2
20220119071504 60 196 0.0 2.0 0.00 0.00 0.00 91 1013.2
20220119071004 61 245 3.0 5.0 0.00 0.00 0.00 91 1013.5
20220119070504 61 201 2.0 5.0 0.00 0.00 0.00 91 1013.5
20220119070004 61 174 2.0 8.0 0.00 0.00 0.00 91 1013.5
20220119065504 60 170 1.0 5.0 0.00 0.00 0.00 90 1013.5
20220119065010 60 180 2.0 5.0 0.00 0.00 0.00 90 1013.5
20220119064505 60 171 4.0 8.0 0.00 0.00 0.00 90 1013.5
20220119064008 60 165 2.0 8.0 0.00 0.00 0.00 89 1013.3
20220119063507 60 177 3.0 8.0 0.00 0.00 0.00 90 1013.2
20220119063004 60 180 1.0 8.0 0.00 0.00 0.00 89 1013.3
20220119062507 60 184 3.0 8.0 0.00 0.00 0.00 89 1013.2
20220119062007 60 223 1.0 5.0 0.00 0.00 0.00 89 1013.5
20220119061506 60 179 2.0 5.0 0.00 0.00 0.00 89 1013.5
20220119061004 60 157 2.0 5.0 0.00 0.00 0.00 88 1013.5
20220119060504 60 169 1.0 5.0 0.00 0.00 0.00 88 1013.5
20220119060004 60 129 2.0 5.0 0.00 0.00 0.00 88 1013.5
20220119055505 60 151 4.0 8.0 0.00 0.00 0.00 88 1013.5
20220119055004 60 133 1.0 5.0 0.00 0.00 0.00 87 1013.5
20220119054503 60 157 1.0 5.0 0.00 0.00 0.00 86 1013.5
20220119054004 60 198 1.0 5.0 0.00 0.00 0.00 86 1013.5
20220119053504 61 156 2.0 5.0 0.00 0.00 0.00 85 1013.5
20220119053005 61 142 2.0 8.0 0.00 0.00 0.00 85 1013.5
20220119052505 61 179 1.0 5.0 0.00 0.00 0.00 85 1013.5
20220119052004 61 146 3.0 5.0 0.00 0.00 0.00 85 1013.5
20220119051504 61 187 2.0 8.0 0.00 0.00 0.00 84 1013.5
20220119051007 61 179 3.0 5.0 0.00 0.00 0.00 84 1013.5
20220119050507 61 137 3.0 8.0 0.00 0.00 0.00 84 1013.5